Regional Weather Roundup
Issued by NWS

Home | Current Version | Previous Version | Graphics & Text | Print | Product List | Glossary On
Versions: 1 2 3 4 5 6 7 8 9 10 11 12 13 14 15 16 17 18 19 20 21 22 23 24 25 26 27 28 29 30 31 32 33 34 35 36 37 38 39 40 41 42 43 44 45 46 47 48 49 50
000
ASUS43 KLMK 230710
RWRKY
KENTUCKY REGIONAL WEATHER ROUNDUP
NATIONAL WEATHER SERVICE LOUISVILLE KY
300 AM EDT TUE SEP 23 2014

NOTE "FAIR" INDICATES FEW OR NO CLOUDS BELOW 12,000 FEET
WITH NO SIGNIFICANT WEATHER AND/OR OBSTRUCTIONS TO VISIBILITY.

KYZ001>023-026-027-061>063-070>075-230800-
WESTERN AND SOUTH CENTRAL KENTUCKY

CITY           SKY/WX    TMP DP  RH WIND       PRES   REMARKS
PADUCAH        FAIR      51  45  79 CALM      30.25R
HENDERSON      CLEAR     45  43  93 CALM      30.28S
OWENSBORO      CLEAR     51  48  89 CALM      30.28R
HOPKINSVILLE   CLEAR     52  47  83 N6        30.25S
BOWLING GREEN  CLEAR    N/A N/A N/A CALM      30.26S
GLASGOW        CLEAR     49  44  82 CALM      30.26R
$$

KYZ024-025-028>034-038-045-046-053-230800-
NORTH CENTRAL KENTUCKY

CITY           SKY/WX    TMP DP  RH WIND       PRES   REMARKS
LOUISVILLE/SDF CLEAR     52  46  80 E3        30.27F
LOUISVILLE/LOU CLEAR     50  45  83 CALM      30.28F
FORT KNOX      CLEAR     49  45  87 N5        30.26S
$$

KYZ035>037-039>044-047>052-055>060-089>105-230800-
NORTHEAST KENTUCKY

CITY           SKY/WX    TMP DP  RH WIND       PRES   REMARKS
LEXINGTON      CLEAR     49  42  77 NE6       30.28S
COVINGTON      CLEAR     48  42  80 CALM      30.29R
FRANKFORT      CLEAR     45  42  89 CALM      30.27F
$$

KYZ054-064>069-076>088-106>120-230800-
SOUTHEAST KENTUCKY

CITY           SKY/WX    TMP DP  RH WIND       PRES   REMARKS
JACKSON        CLEAR     52  44  74 CALM      30.26F
LONDON         CLEAR     49  46  90 N3        30.26S
SOMERSET       CLEAR     46  45  93 CALM      30.27S
MIDDLESBORO    PTCLDY    46  46  98 CALM      30.26S
MONTICELLO     SUNNY     43  43 100 CALM      30.27S
$$



USA.gov is the U.S. government's official web portal to all federal, state and local government web resources and services.